EW7939 Weather Reports


Display with metric or nautical units.
time (UTC)temp
F
wind
direction
speed
MPH
gust
MPH
rain 1hr
in
rain 24hr
in
rain mn
in
humidity
%
barometer
mb
20260905170045 0 0.0 0.0 0.00 0.00 0.00 1011.9
20260905164540 0 0.0 0.0 0.00 0.00 0.00 1011.9
20260905163036 0 0.0 0.0 0.00 0.00 0.00 1011.8
20260905161532 0 0.0 0.0 0.00 0.00 0.00 1011.8
20260905160028 0 0.0 0.0 0.00 0.00 0.00 1011.7
20260905154523 0 0.0 0.0 0.00 0.00 0.00 1011.7
20260905153022 0 0.0 0.0 0.00 0.00 0.00 1011.5
20260905151515 0 0.0 0.0 0.00 0.00 0.00 1011.6
20260905150010 0 0.0 0.0 0.00 0.00 0.00 1011.6
20260905144506 0 0.0 0.0 0.00 0.00 0.00 1011.5
20260905143004 0 0.0 0.0 0.00 0.00 0.00 1011.5
20260905141559 0 0.0 0.0 0.00 0.00 0.00 1011.4
20260905140104 0 0.0 0.0 0.00 0.00 0.00 1011.3
20260905134549 0 0.0 0.0 0.00 0.00 0.00 1011.3
20260905133044 0 0.0 0.0 0.00 0.00 0.00 1011.1
20260905131556 0 0.0 0.0 0.00 0.00 0.00 1011.0
20260905130041 0 0.0 0.0 0.00 0.00 0.00 1010.9
20260905124532 0 0.0 0.0 0.00 0.00 0.00 1010.7
20260905123027 0 0.0 0.0 0.00 0.00 0.00 1010.7
20260905121522 0 0.0 0.0 0.00 0.00 0.00 1010.6
20260905120018 0 0.0 0.0 0.00 0.00 0.00 1010.4
20260905114515 0 0.0 0.0 0.00 0.00 0.00 1010.1
20260905113014 0 0.0 0.0 0.00 0.00 0.00 1010.0
20260905111505 0 0.0 0.0 0.00 0.00 0.00 1010.0
20260905110002 0 0.0 0.0 0.00 0.00 0.00 1009.9
20260905104558 0 0.0 0.0 0.00 0.00 0.00 1009.8
20260905103054 0 0.0 0.0 0.00 0.00 0.00 1009.8
20260905101550 0 0.0 0.0 0.00 0.00 0.00 1009.9
20260905100046 0 0.0 0.0 0.00 0.00 0.00 1010.0
20260905094540 0 0.0 0.0 0.00 0.00 0.00 1009.9
20260905093040 73 230 0.0 0.0 0.00 0.00 0.00 84 1009.8
20260905091536 73 230 0.0 0.0 0.00 0.00 0.00 82 1009.9
20260905090035 73 230 0.0 0.0 0.00 0.00 0.00 81 1009.9
20260905084533 73 230 0.0 0.0 0.00 0.00 0.00 81 1009.9
20260905083032 74 230 0.0 0.0 0.00 0.00 0.00 81 1009.8
20260905081531 74 230 0.0 0.0 0.00 0.00 0.00 81 1009.8
20260905080030 74 230 0.0 0.0 0.00 0.00 0.00 81 1009.7
20260905074528 74 230 0.0 0.0 0.00 0.00 0.00 80 1009.8
20260905073029 75 230 0.0 0.0 0.00 0.00 0.00 80 1009.7
20260905071538 75 230 0.0 0.0 0.00 0.00 0.00 80 1009.8
20260905070023 75 230 0.0 0.0 0.00 0.00 0.00 79 1009.9
20260905064520 76 230 0.0 0.0 0.00 0.00 0.00 80 1009.9
20260905063018 76 230 0.0 0.0 0.00 0.00 0.00 80 1010.0
20260905061515 76 230 0.0 0.0 0.00 0.00 0.00 77 1010.1
20260905060016 77 230 0.0 0.0 0.00 0.00 0.00 77 1010.0
20260905054534 77 230 0.0 0.0 0.00 0.00 0.00 77 1010.0
20260905053010 77 230 0.0 0.0 0.00 0.00 0.00 77 1010.0
20260905051508 78 230 0.0 0.0 0.00 0.00 0.00 76 1010.0
20260905050005 78 230 0.0 0.0 0.00 0.00 0.00 76 1010.0
20260905044508 78 230 0.0 0.0 0.00 0.00 0.00 76 1010.0
20260905043005 79 230 0.0 0.0 0.00 0.00 0.00 76 1010.1
20260905041504 79 230 0.0 0.0 0.00 0.00 0.00 73 1009.9
20260905040003 79 230 0.0 0.0 0.00 0.00 0.00 73 1009.9
20260905034503 80 230 0.0 0.0 0.00 0.00 0.00 72 1009.9
20260905033002 81 230 0.0 0.0 0.00 0.00 0.00 74 1009.9
20260905031501 81 230 0.0 0.0 0.00 0.00 0.00 71 1009.8
20260905024622 82 230 0.0 0.0 0.00 0.00 0.00 70 1009.8
20260905023117 83 230 0.0 0.0 0.00 0.00 0.00 68 1009.6
20260905021601 84 230 0.0 0.0 0.00 0.00 0.00 69 1009.6
20260905020107 85 230 0.0 0.0 0.00 0.00 0.00 67 1009.3
20260905014600 86 230 0.0 0.0 0.00 0.00 0.00 64 1009.1
20260905013056 88 230 0.0 0.0 0.00 0.00 0.00 62 1009.0
20260905011604 89 230 0.0 0.0 0.00 0.00 0.00 58 1008.8
20260905010054 91 230 0.0 0.0 0.00 0.00 0.00 56 1008.7
20260905004554 93 230 0.0 0.0 0.00 0.00 0.00 53 1008.6
20260905003053 94 230 0.0 0.0 0.00 0.00 0.00 53 1008.5
20260905001552 96 230 0.0 0.0 0.00 0.00 0.00 50 1008.6
20260905000051 97 230 0.0 0.0 0.00 0.00 0.00 49 1008.7
20260904234556 98 230 0.0 0.0 0.00 0.00 0.00 49 1008.7
20260904233052 99 230 0.0 1.0 0.00 0.00 0.00 49 1008.8
20260904231547 99 230 0.0 5.0 0.00 0.00 0.00 47 1008.9
20260904230047 100 211 1.0 4.0 0.00 0.00 0.00 45 1009.1
20260904224601 100 257 1.0 4.0 0.00 0.00 0.00 45 1009.1
20260904223049 100 121 1.0 4.0 0.00 0.00 0.00 45 1009.0
20260904221548 101 202 1.0 4.0 0.00 0.00 0.00 46 1009.0
20260904220042 101 219 1.0 7.0 0.00 0.00 0.00 44 1009.0
20260904214543 101 242 2.0 7.0 0.00 0.00 0.00 45 1009.2
20260904213037 101 246 2.0 7.0 0.00 0.00 0.00 44 1009.2
20260904211534 100 120 2.0 8.0 0.00 0.00 0.00 45 1009.4
20260904210039 100 145 2.0 9.0 0.00 0.00 0.00 45 1009.7
20260904204533 100 238 2.0 7.0 0.00 0.00 0.00 44 1009.8
20260904203031 100 272 2.0 8.0 0.00 0.00 0.00 45 1009.9
20260904201528 100 137 1.0 4.0 0.00 0.00 0.00 48 1010.1
20260904200024 99 215 2.0 8.0 0.00 0.00 0.00 47 1010.3
20260904194519 99 246 1.0 8.0 0.00 0.00 0.00 49 1010.5
20260904193016 98 283 2.0 8.0 0.00 0.00 0.00 47 1010.6
20260904191512 98 234 5.0 11.0 0.00 0.00 0.00 48 1010.8
20260904190007 97 234 2.0 6.0 0.00 0.00 0.00 48 1011.0
20260904184504 97 286 3.0 7.0 0.00 0.00 0.00 51 1011.2
20260904183100 96 254 4.0 10.0 0.00 0.00 0.00 51 1011.3
20260904181558 96 225 4.0 9.0 0.00 0.00 0.00 52 1011.3
20260904180058 95 271 4.0 8.0 0.00 0.00 0.00 52 1011.3
20260904174552 95 186 4.0 11.0 0.00 0.00 0.00 53 1011.5
20260904173110 94 311 6.0 12.0 0.00 0.00 0.00 53 1011.8
20260904171603 94 265 3.0 11.0 0.00 0.00 0.00 54 1011.9